Hourly Data Report for July 18, 2021

TORONTO CITY
ONTARIO
Current Station Operator: ECCC - MSC

43°40'00.000" N
79°24'00.000" W
112.50 m
6158355
71508
XTO

Download Data

Hourly Data (July 2021)
Hourly Data Report for July 18, 2021
TIME
LST
Temp Definition
°C
Dew Point Definition
°C
Rel Hum Definition
%
Precip. Amount Definition
mm

Wind Dir Definition
10's deg

Wind Spd Definition
km/h
Visibility Definition
km
Stn Press Definition
kPa
Hmdx Definition


Wind Chill Definition


Weather Definition


00:00 19.6 17.7 88 0.1       100.48     LegendNANA
01:00 19.7 18.0 89 0.1       100.49     LegendNANA
02:00 19.5 17.0 85 0.0       100.48     LegendNANA
03:00 19.7 17.0 84 0.0       100.48     LegendNANA
04:00 19.4 16.1 81 0.0       100.52     LegendNANA
05:00 19.5 16.0 80 0.0       100.56     LegendNANA
06:00 19.7 16.4 81 0.0       100.58     LegendNANA
07:00 19.6 16.7 83 0.0       100.60     LegendNANA
08:00 20.4 17.2 82 0.0       100.63 26   LegendNANA
09:00 22.2 18.0 77 0.0       100.63 28   LegendNANA
10:00 25.7 18.3 64 0.0       100.61 32   LegendNANA
11:00 26.2 17.4 59 0.0       100.58 32   LegendNANA
12:00 26.0 17.8 60 0.0       100.57 32   LegendNANA
13:00 26.8 18.6 61 0.0       100.54 33   LegendNANA
14:00 26.8 18.3 60 0.0       100.52 33   LegendNANA
15:00 26.0 18.1 61 0.0       100.49 32   LegendNANA
16:00 29.1 13.7 39 0.0       100.44 32   LegendNANA
17:00 28.7 14.1 41 0.0       100.44 32   LegendNANA
18:00 27.9 13.4 41 0.0       100.44 31   LegendNANA
19:00 26.9 13.9 45 0.0       100.47 30   LegendNANA
20:00 25.6 13.7 48 0.0       100.48 29   LegendNANA
21:00 24.5 13.5 50 0.0       100.48 28   LegendNANA
22:00 23.6 15.5 60 0.0       100.48 28   LegendNANA
23:00 23.1 16.1 65 0.0       100.49 28   LegendNANA

Notes on Data Quality.

Legend

  • E = Estimated
  • M = Missing
  • NA = Not Available*
  • [empty] = Indicates an unobserved value
Date modified: